Location: Newark
(43.6583°N, 1.6617°E)
Time: 14:54:57
(UTC+00:00)

Transit 4A - Pass Details

Date: 01 September 2019
Orbit: 865 x 980 km, 66.8° (Epoch: 21 September)

Event Time Altitude Azimuth Distance (km) Brightness Sun altitude
Rises 14:06:19 0° 161° (SSE) 3,658 11.2 44.3°
Reaches altitude 10° 14:09:44 10° 143° (SE) 2,722 10.5 43.8°
Maximum altitude 14:13:47 18° 103° (ESE) 2,207 9.8 43.2°
Drops below altitude 10° 14:17:50 10° 63° (ENE) 2,729 10.0 42.6°
Sets 14:21:15 0° 46° (NE) 3,672 10.6 42.2°
